sat.trackr.live / text

‹ back to catalog

STARLINK-31868

NORAD 59783 · 2024-093B

PAYLOAD ACTIVE UNKNOWN

§ Identity

Operator
Country
US
Launch date
2024-05-18
Launch site
AFETR
Launch vehicle
Mass (kg)
RCS (m²)

Purposes: comms

External: N2YO · Heavens-Above · Gunter

§ Orbital elements

Epoch: 2026-09-21T11:15:24.751872Z

Period
94.27 min
Inclination
43.0014°
Eccentricity
0.0000831
Mean motion
15.27575589 rev/d
Perigee alt
482.5 km
Apogee alt
483.6 km
Semi-major
6,861.2 km
B*
-1.1065e-5
RAAN
180.0135°
Arg perigee
276.7271°
Mean anomaly
83.3486°
Rev number
13,267

§ Raw data

STARLINK-318681 59783U 24093B   26264.46903648 -.00000566  00000+0 -11065-4 0  99952 59783  43.0014 180.0135 0000831 276.7271  83.3486 15.27575589132673

JSON: /api/v1/satellites/59783 · /tle

For live sub-satellite position, see the globe view (requires WebGL).

§ Visibility from observer

Set your observer location to see the next 7 days of passes ≥ 10°. The values pass through the URL so the page stays shareable.

No JS? Fill the form by hand. The geolocation button needs JavaScript.